Skip Page Navigation
NASA JPL Caltech
NASA Logo - Jet Propulsion Laboratory + View the NASA Portal
+ Center for Near-Earth Object Studies
JPL Home Earth Solar System Stars & Galaxies Technology
JPL Solar System Dynamics
BODIES ORBITS EPHEMERIDES TOOLS PHYSICAL DATA DISCOVERY FAQ SITE MAP
IMPORTANT: The SSD Announcement email list is now available. Major changes are coming in the near future, including possible hostname and/or URL changes. To be notified of such changes, subscribe to this email list.

Please visit this page for more details.


JPL Small-Body Database Browser
Search: [ help ]  
146005 (2000 CE56)
Classification: Main-belt Asteroid          SPK-ID: 2146005
Ephemeris | Orbit Diagram | Orbital Elements | Mission Design | Physical Parameters | Discovery Circumstances | Close-Approach Data ]

[ show orbit diagram ]
Orbital Elements at Epoch 2458600.5 (2019-Apr-27.0) TDB
Reference: JPL 15 (heliocentric ecliptic J2000)
 Element Value Uncertainty (1-sigma)   Units 
e .1907850065328963 4.489e-08  
a 2.363446652353193 1.0217e-08 au
q 1.912536467343838 1.053e-07 au
i 1.636311692439895 4.5418e-06 deg
node 323.0423111381212 0.00017715 deg
peri 135.5664565608984 0.00017765 deg
M 136.7317443039721 1.1674e-05 deg
tp 2458096.437967718183
(2017-Dec-08.93796772)
4.2738e-05 TDB
period 1327.14120298239
3.63
8.606e-06
2.356e-08
d
yr
n .2712597568299421 1.759e-09 deg/d
Q 2.814356837362549 1.2167e-08 au
  Orbit Determination Parameters
   # obs. used (total)      520  
   data-arc span      9648 days (26.41 yr)  
   first obs. used      1993-03-21  
   last obs. used      2019-08-20  
   planetary ephem.      DE431  
   SB-pert. ephem.      SB431-N16  
   condition code      0  
   norm. resid. RMS      .53262  
   source      ORB  
   producer      Otto Matic  
   solution date      2019-Sep-24 03:33:16  

Additional Information
 Earth MOID = .929927 au 
 Jupiter MOID = 2.34969 au 
 T_jup = 3.524 
[ show covariance matrix ]

Ephemeris | Orbit Diagram | Orbital Elements | Mission Design | Physical Parameters | Discovery Circumstances | Close-Approach Data ]

Physical Parameter Table
Parameter Symbol Value Units Sigma Reference Notes
absolute magnitude H 16.5   n/a MPO436733  

146005 (2000 CE56)          Discovered 2000-Feb-04 by LINEAR at Socorro
Reference: 20070106/Numbers.arcLast Updated: 2007-01-09

[ show close-approach data ]
Ephemeris | Orbit Diagram | Orbital Elements | Mission Design | Physical Parameters | Discovery Circumstances | Close-Approach Data ]
ABOUT SSD CREDITS/AWARDS PRIVACY/COPYRIGHT GLOSSARY LINKS
FirstGov 2020-Jan-25 09:20 UT
(server date/time)  
NASA Home Page
Site Manager:   Ryan S. Park
Webmaster  Alan B. Chamberlin